This is the latest recevied weather packets stored in our database for station/object KQ4UPF. If no packets are shown the sender has not sent any weather packets the latest 10 day(s).
| Time | Temp. | Humidity | Pressure | Rain* | Wind** | Luminosity | Snow |
|---|---|---|---|---|---|---|---|
| 1777849089 | 18.89° C | 47% | 1018.3 hPa | 0 mm | - | 64 W/m² | - |
| 1777848784 | 19.44° C | 44% | 1018.5 hPa | 0 mm | - | 147 W/m² | - |
| 1777848481 | 20° C | 47% | 1018.4 hPa | 0 mm | - | 204 W/m² | - |
| 1777848178 | 20° C | 49% | 1018.3 hPa | 0 mm | - | 222 W/m² | - |
| 1777847876 | 20° C | 47% | 1018.3 hPa | 0 mm | - | 244 W/m² | - |
| 1777847573 | 20° C | 43% | 1018.4 hPa | 0 mm | - | 262 W/m² | - |
| 1777847269 | 20° C | 41% | 1018.4 hPa | 0 mm | - | 283 W/m² | - |
| 1777846967 | 20.56° C | 42% | 1018.4 hPa | 0 mm | - | 303 W/m² | - |
| 1777846666 | 20.56° C | 40% | 1018.5 hPa | 0 mm | - | 323 W/m² | - |
| 1777846363 | 20.56° C | 41% | 1018.6 hPa | 0 mm | - | 342 W/m² | - |
| 1777846059 | 20.56° C | 41% | 1018.6 hPa | 0 mm | - | 363 W/m² | - |
| 1777845756 | 20.56° C | 39% | 1018.5 hPa | 0 mm | - | 385 W/m² | - |
| 1777845453 | 20.56° C | 41% | 1018.8 hPa | 0 mm | - | 403 W/m² | - |
| 1777845150 | 21.11° C | 39% | 1018.8 hPa | 0 mm | - | 423 W/m² | - |
| 1777844848 | 20.56° C | 42% | 1018.6 hPa | 0 mm | - | 447 W/m² | - |
| 1777844545 | 20.56° C | 40% | 1018.8 hPa | 0 mm | - | 464 W/m² | - |
| 1777844243 | 20.56° C | 40% | 1018.8 hPa | 0 mm | - | 484 W/m² | - |
| 1777843940 | 21.11° C | 38% | 1018.8 hPa | 0 mm | - | 504 W/m² | - |
| 1777843637 | 20.56° C | 42% | 1018.9 hPa | 0 mm | - | 523 W/m² | - |
| 1777843334 | 20.56° C | 38% | 1018.9 hPa | 0 mm | - | 546 W/m² | - |
| 1777843032 | 20.56° C | 40% | 1019 hPa | 0 mm | - | 565 W/m² | - |
| 1777842728 | 20.56° C | 43% | 1019.2 hPa | 0 mm | - | 585 W/m² | - |
| 1777842424 | 21.11° C | 40% | 1019.1 hPa | 0 mm | - | 605 W/m² | - |
| 1777842121 | 21.11° C | 42% | 1019.2 hPa | 0 mm | - | 617 W/m² | - |
| 1777841815 | 20.56° C | 36% | 1019.2 hPa | 0 mm | - | 636 W/m² | - |
* Rain latest hour (hover to see other rain measurements)
** Current wind speed in m/s (hover to see current wind gust speed)